STARLINK-11521, 62597

Orbit data source: Space-Track

STARLINK-11521, 62597 is a payload satellite owned by SpaceX/Seattle (US) in LEO that was launched on Mon, 13 Jan 2025 UTC via an FALCON 9 launch vehicle from the Air Force Eastern Test Range (AFETR). Payload-class satellites include a variety of spacecraft equipped with specific instruments for various scientific and technological missions. These include communications satellites like Starlink; space stations such as the ISS; scientific satellites like the Hubble; Earth observation satellites from companies like Planet Labs, Umbra, and HawkEye 360; GPS; miniature CubeSats for education and research; and military/defense satellites.

Loading next visibility...
Identifier
62597, 2025-008L
Orbit
LEO
Country
Flag of USUS
Related business
Manufacturer
SpaceX/Seattle
Mission
Operational Commercial Communications
Bus & Motor
STARLINK V2MD, Unknown motor
Mass
960 kg wet, ~910 kg dry
Launch date (UTC)
2025-01-13 (2 years ago)
Launch vehicle
FALCON 9
Launch site
Air Force Eastern Test Range (AFETR)
Object type
Payload
Rocket body
Debris
Shape & HBR
Box + 2 Pan, 18.1 m
Radar Cross Section
36.964 m², Large (>1 m²)

Expand to show TLE details & history
Last TLE update: 16 hours ago

TLE from 16 hours ago
0 STARLINK-11521
1 62597U 25008L   26202.58036751  .00109861  00000-0  84591-3 0  9996
2 62597  43.0010  38.9462 0001859 274.1891  85.8764 15.70909574 88344
Epoch: 2026-07-21T13:55Z
TLE epoch observation values (Epoch: 2026-07-21T13:55:43.752Z)
Latitude
-0.00005°
Longitude
-109.33417°
Altitude
355.978 km
Speed
7.698 km/s
True Right ascension
02h 35m 47s
True Declination
0° 00' 00"
Sunlit
Object was in daylight at epoch
Visualization orbit readout
Latitude
Unknown
Longitude
Unknown
Altitude
Unknown
Speed
Unknown
Apparent Right ascension
Unknown
Apparent Declination
Unknown
Sunlit
N/A
Visualization observer readout
Local Sidereal Time
18:29:48
Azimuth
Unknown
Elevation
Unknown
Doppler factor
Unknown
Orbital elements
Apogee altitude
359.53 km
Perigee altitude
357.025 km
Semi-major axis
6,736.415 km
Eccentricity
0.00019
Inclination
43.001°
RAAN
38.9462°
Arg. of periapsis
274.1891°
True anomaly
85.89765°
Mean anomaly
85.8764°
Eccentric anomaly
85.88702°
Mean motion
3.92554 °/min
Orbital period
91.71 mins
BSTAR
0.00084591
Loading maneuver chart data...
Computing Atmospheric mass density...
Loading historical data...
Loading historical data...
Loading historical data...
Loading historical data...
Loading historical data...
Loading historical data...
Loading historical data...

Documentation

Showing up to 5 results
|